Regional Weather Roundup
Issued by NWS Cleveland, OH

Home | Current Version | Previous Version | Text Only | Print | Product List | Glossary Off
Versions: 1 2 3 4 5 6 7 8 9 10 11 12 13 14 15 16 17 18 19 20 21 22 23 24 25 26 27 28 29 30 31 32 33 34 35 36 37 38 39 40 41 42 43 44 45 46 47 48 49 50

000
ASUS41 KCLE 070202
RWRCLE
OHIO REGIONAL WEATHER ROUNDUP
NATIONAL WEATHER SERVICE CLEVELAND, OH
900 PM EST FRI MAR 06 2015

NOTE: "FAIR" INDICATES FEW OR NO CLOUDS BELOW 12,000 FEET WITH NO
SIGNIFICANT WEATHER AND/OR OBSTRUCTIONS TO VISIBILITY.

OHZ001>008-015>018-024>027-034-035-043-044-070300-
   NORTHWEST OHIO

CITY           SKY/WX    TMP DP  RH WIND       PRES   REMARKS
DEFIANCE       CLEAR     21  10  62 SW10      30.26F WCI  10
FINDLAY        CLEAR     21  10  62 S13       30.26S WCI   9
TOLEDO EXPRESS CLEAR     20  11  68 S10       30.24F WCI   9
TOLEDO EXEC    CLEAR     21  10  62 S12       30.26F WCI   9
LIMA           CLEAR     23  11  60 S15       30.26F WCI  10
$$

OHZ009>014-019>023-028>033-038-089-070300-
   NORTHEAST OHIO

CITY           SKY/WX    TMP DP  RH WIND       PRES   REMARKS
CLE-HOPKINS    PTCLDY    20   5  52 S13G22    30.30F WCI   7
CLE-LAKEFRONT  PTCLDY    22   6  50 S20G28    30.28F WCI   7
CUY CO. ARPT   PTCLDY    21   7  53 SW14      30.27F WCI   8
LORAIN-ELYRIA  PTCLDY    19   7  59 S13       30.28F WCI   6
ASHTABULA      PTCLDY    18   3  52 S10       30.26F WCI   6
AKRON-CANTON   PTCLDY    17   5  59 SW12      30.29F WCI   4
WOOSTER        PTCLDY    17   4  56 SW14      30.29F WCI   3
MANSFIELD      MOCLDY    18   7  62 S17       30.27F WCI   3
YOUNGSTOWN     PTCLDY    18   3  52 S7        30.27F WCI   9
$$

OHZ042-051>053-060>062-070>072-077>081-070300-
  SOUTHWEST OHIO

CITY           SKY/WX    TMP DP  RH WIND       PRES   REMARKS
CINC-COVINGTON CLEAR     23  11  60 S9        30.37S WCI  13
CINC-LUNKEN    CLEAR     22  14  71 S9        30.42R WCI  12
HAMILTON       CLEAR     25  12  58 S6        30.38S WCI  18
DAYTON         CLEAR     25  11  55 S16       30.32S WCI  12
WRIGHT-PAT AFB CLEAR     24  11  58 S10       30.34S WCI  13
DAYTON GENERAL CLEAR     23  11  60 S9        30.34R WCI  13
WILMINGTON     CLEAR     18   9  68 S14       30.35S WCI   4
$$

OHZ036-037-039>041-045>050-054>059-063>069-073>076-082>088-070300-
  CENTRAL AND SOUTHEAST OHIO

CITY           SKY/WX    TMP DP  RH WIND       PRES   REMARKS
COLUMBUS       PTCLDY    20   8  60 S7        30.36S WCI  11
OSU AIRPORT    CLOUDY    21   8  57 S12       30.34F WCI   9
BOLTON FIELD   PTCLDY   N/A N/A N/A S10G17    30.36F
RICKENBACK AFB PTCLDY    18   8  67 S7        30.38S WCI   8
NEWARK         CLEAR     19   7  59 S6        30.35S WCI  11
MARION         CLEAR     19   8  62 S17       30.29F WCI   4
LANCASTER      CLEAR     11   6  81 S3        30.37S
ZANESVILLE     CLEAR     18  11  74 S7        30.36S WCI   9
NEW PHILLY     CLEAR     21  11  65 VRB7      30.34F WCI  12
$$


USA.gov is the U.S. government's official web portal to all federal, state and local government web resources and services.